DELTA 1 DEB, 21279

Orbit data source: Space-Track

DELTA 1 DEB, 21279 is space debris in SSO originally from a launch on Thu, 12 Jun 1975 UTC launched from the Air Force Western Test Range (AFWTR). Debris objects in space refer to the collection of defunct objects orbiting the Earth. Examples of debris include non-operational satellites, rocket bodies, and fragments generated from explosions, collisions, or faulty payload assembly.

Loading next visibility...
Identifier
21279, 1975-052Q
Orbit
SSO
Country
Flag of USUS
Related business
Manufacturer
Unknown
Mission
Spacecraft
Bus & Motor
Unknown
Mass
Unknown
Launch date (UTC)
1975-06-12 (50 years ago)
Launch vehicle
Unknown
Launch site
Air Force Western Test Range (AFWTR)
Object type
Payload
Rocket body
Debris
Shape & HBR
Unknown shape, 0.1 m
Radar Cross Section
Small (<0.1 m²)

Expand to show TLE details & history
Last TLE update: 20 hours ago

TLE from 20 hours ago
0 DELTA 1 DEB
1 21279U 75052Q   25290.98656985  .00000123  00000-0  22895-3 0  9999
2 21279  99.4249  95.6458 0055052 330.7691 152.3194 13.57531662706189
Epoch: 2025-10-17T23:40Z
TLE epoch observation values (Epoch: 2025-10-17T23:40:39.635Z)
Latitude
55.5611°
Longitude
-92.30744°
Altitude
1,090.069 km
Speed
7.295 km/s
True Right ascension
19h 18m 19s
True Declination
55° 24' 28"
Sunlit
Object was in daylight at epoch
Visualization orbit readout
Latitude
Unknown
Longitude
Unknown
Altitude
Unknown
Speed
Unknown
Apparent Right ascension
Unknown
Apparent Declination
Unknown
Sunlit
N/A
Visualization observer readout
Local Sidereal Time
14:52:34
Azimuth
Unknown
Elevation
Unknown
Doppler factor
Unknown
Orbital elements
Apogee altitude
1,082.802 km
Perigee altitude
1,001.104 km
Semi-major axis
7,420.09 km
Eccentricity
0.00551
Inclination
99.4249°
RAAN
95.6458°
Arg. of periapsis
330.7691°
True anomaly
152.61068°
Mean anomaly
152.3194°
Eccentric anomaly
152.46522°
Mean motion
3.3957 °/min
Orbital period
106.02 mins
BSTAR
0.00022895
Loading maneuver chart data...
Computing Atmospheric mass density...

Documentation

Showing up to 5 results
|